Weather History for Opa Locka, FL

Change the Weather History Date:

Tuesday, February 4, 2014

  Actual Average Record
Temperature  
Mean Temperature 76 °F -  
Max Temperature 81 °F 76 °F 85 °F (1957)
Min Temperature 70 °F 59 °F 36 °F (1958)
Cooling Degree Days 10    
Growing Degree Days 26 (Base 50)    
Moisture  
Dew Point 70 °F    
Average Humidity 87    
Maximum Humidity 100    
Minimum Humidity 67    
Precipitation  
Precipitation 0.00 in - - ()
Sea Level Pressure  
Sea Level Pressure 30.09 in    
Wind  
Wind Speed 9 mph (ESE)    
Max Wind Speed 16 mph    
Max Gust Speed -    
Visibility 10 miles    
Events      
Averages and records for this station are not official NWS values.
T = Trace of Precipitation, MM = Missing Value Source: NWS Daily Summary

Daily Weather History Graph

Daily Weather History Graph

Search for Another Location

Airport:

Trip Planner

Search our weather history database for the weather conditions in past years. The results will help you decide how hot, cold, wet, or windy it might be!

Date:

Astronomy

Feb. 04, 2014 Rise Set
Actual Time 7:03 AM EST 6:06 PM EST
Civil Twilight 6:39 AM EST 6:30 PM EST
Nautical Twilight 6:12 AM EST 6:58 PM EST
Astronomical Twilight 5:44 AM EST 7:25 PM EST
Moon 10:16 AM EST (2/4) 11:20 PM EST (2/4)
Length of Visible Light 11h 51m
Length of Day
11h 03m
Waxing Crescent, 29% of the Moon is Illuminated
Feb 4
Waxing Crescent
Feb 6
First Quarter
Feb 14
Full
Feb 22
Last Quarter
Mar 1
New

Hourly Weather History & Observations

Time (EST) Temp. Heat Index Dew Point Humidity Pressure Visibility Wind Dir Wind Speed Gust Speed Precip Events Conditions
12:53 AM 75.0 °F - 73.9 °F 96% 30.09 in 10.0 mi East 5.8 mph - N/A   Overcast
1:53 AM 75.0 °F - 73.9 °F 96% 30.08 in 10.0 mi ESE 8.1 mph - N/A   Overcast
2:53 AM 73.9 °F - 73.0 °F 97% 30.07 in 10.0 mi ESE 6.9 mph - N/A   Scattered Clouds
3:53 AM 73.9 °F - 72.0 °F 93% 30.08 in 10.0 mi ESE 5.8 mph - N/A   Mostly Cloudy
4:53 AM 73.0 °F - 71.1 °F 93% 30.08 in 10.0 mi ESE 4.6 mph - N/A   Clear
5:53 AM 72.0 °F - 70.0 °F 93% 30.09 in 10.0 mi Calm Calm - N/A   Partly Cloudy
6:53 AM 70.0 °F - 70.0 °F 100% 30.10 in 10.0 mi SE 3.5 mph - N/A   Mostly Cloudy
7:53 AM 73.0 °F - 71.1 °F 93% 30.12 in 10.0 mi Calm Calm - N/A   Partly Cloudy
8:53 AM 78.1 °F - 72.0 °F 81% 30.13 in 10.0 mi ESE 9.2 mph - N/A   Partly Cloudy
9:53 AM 80.1 °F 82.9 °F 69.1 °F 69% 30.14 in 10.0 mi SE 15.0 mph - N/A   Partly Cloudy
10:53 AM 81.0 °F 84.1 °F 69.1 °F 67% 30.14 in 10.0 mi ESE 16.1 mph - N/A   Partly Cloudy
11:50 AM - - 50.0 °F N/A% - - North - - N/A   Unknown
12:50 PM - - 50.0 °F N/A% - - North - - N/A   Unknown
1:53 PM 81.0 °F 84.1 °F 69.1 °F 67% 30.07 in 10.0 mi SE 15.0 mph - N/A   Unknown
2:53 PM 80.1 °F 82.7 °F 68.0 °F 67% 30.06 in 10.0 mi ESE 16.1 mph - N/A   Partly Cloudy
3:53 PM 80.1 °F 83.2 °F 70.0 °F 71% 30.06 in 10.0 mi East 15.0 mph - N/A   Mostly Cloudy
4:53 PM 79.0 °F - 71.1 °F 77% 30.06 in 10.0 mi ESE 13.8 mph - N/A   Mostly Cloudy
5:53 PM 77.0 °F - 72.0 °F 84% 30.07 in 10.0 mi ESE 11.5 mph - N/A   Mostly Cloudy
6:14 PM 75.9 °F - 71.1 °F 85% 30.07 in 10.0 mi ESE 13.8 mph - N/A   Scattered Clouds
6:53 PM 75.9 °F - 73.0 °F 91% 30.07 in 10.0 mi ESE 10.4 mph - N/A   Scattered Clouds
7:53 PM 75.9 °F - 73.0 °F 91% 30.08 in 10.0 mi ESE 12.7 mph - N/A   Partly Cloudy
8:53 PM 75.9 °F - 73.9 °F 94% 30.08 in 10.0 mi ESE 10.4 mph - N/A   Partly Cloudy
9:53 PM 75.9 °F - 73.0 °F 91% 30.09 in 10.0 mi SE 11.5 mph - N/A   Partly Cloudy
10:10 PM 75.9 °F - 73.9 °F 94% 30.08 in 10.0 mi SE 13.8 mph - N/A   Mostly Cloudy
10:53 PM 75.9 °F - 73.9 °F 94% 30.09 in 10.0 mi SE 11.5 mph - N/A   Mostly Cloudy
11:53 PM 75.9 °F - 73.9 °F 94% 30.08 in 10.0 mi SE 10.4 mph - N/A   Mostly Cloudy